EHI
16 11 4 1 0 0 0 0 0 0 0 0 0 0 0 0 0 0 0 1 1 1 0 0 0 0 1 2 1 0 0 0 0 1 1 1 0 0 0 0 0 0 0 0 0 0 0 0 0
9 6 3 1 0 0 0 0 0 0 0 0 0 0 0 0 0 0 1 1 1 0 0 0 1 1 1 1 0 0 0 0 0 0 0 0 0 0 0 0 0 0 0 0 0 0 0 0 0
2 2 1 0 0 0 0 0 0 0 0 0 0 0 0 0 0 0 1 1 1 0 0 1 2 2 0 0 0 0 0 0 0 0 0 0 0 0 0 0 0 0 0 0 0 0 0 0 0
0 0 0 0 0 0 0 0 0 0 0 0 0 0 0 0 0 0 0 0 0 0 0 3 7 7 4 3 2 1 1 0 0 0 0 0 0 0 0 0 0 0 0 0 0 0 0 0 0
0 0 0 0 0 0 0 0 0 0 0 0 0 0 0 0 0 0 0 0 0 0 0 4 11 13 11 9 6 4 3 1 0 0 0 0 0 1 0 0 0 0 0 0 0 0 0 0 0
0 0 0 0 0 0 0 0 0 0 0 0 0 0 0 1 1 1 0 0 1 1 0 3 7 11 12 12 10 7 5 3 1 0 0 0 0 0 0 0 0 0 0 0 0 0 0 0 0
0 0 0 0 0 0 0 0 0 0 0 0 0 0 0 1 1 1 0 0 1 1 1 1 3 5 7 8 7 6 5 3 2 0 0 0 0 0 0 0 0 0 0 0 0 0 0 0 0
0 0 0 0 0 0 0 0 0 0 0 0 0 0 0 0 0 0 0 0 0 0 0 1 2 3 3 3 3 3 3 3 1 0 0 0 0 0 0 0 0 0 0 0 0 0 0 0 0
0 0 0 0 0 0 0 0 0 0 0 0 0 0 0 0 0 0 0 0 0 0 0 0 1 1 1 1 1 0 1 1 0 0 0 0 0 0 0 0 0 0 0 0 0 0 0 0 0
0 0 0 0 0 0 0 0 0 0 0 0 0 0 0 0 0 0 0 0 0 0 0 0 0 0 0 0 0 0 0 0 0 0 1 0 0 0 0 0 0 0 0 0 0 0 0 0 0
0 0 0 0 0 0 0 0 0 0 0 0 0 0 0 0 0 0 0 0 0 0 0 0 0 0 0 0 0 0 0 0 0 0 0 0 0 0 0 0 0 0 0 0 0 0 0 0 0
0 0 0 0 0 0 0 0 0 0 0 0 0 0 0 0 0 0 0 0 0 0 0 0 0 0 0 0 0 0 0 0 0 0 0 0 0 0 0 0 0 0 0 1 1 1 0 0 0
1 1 0 0 0 0 0 0 0 0 0 0 0 0 0 0 0 0 0 0 0 0 0 0 0 0 0 0 0 0 0 0 0 0 0 0 0 0 1 0 0 0 0 0 0 1 1 0 0
1 1 0 0 0 0 0 0 0 0 0 0 0 0 0 0 0 0 0 0 0 0 0 0 0 0 0 0 0 0 0 0 0 0 0 0 0 0 0 0 0 0 0 0 0 0 1 0 0
1 0 0 0 0 0 0 0 0 0 0 0 0 0 0 0 0 0 0 0 0 0 0 0 0 0 0 0 0 0 0 0 0 0 0 0 0 0 0 0 0 0 0 0 1 1 1 0 0
0 0 0 0 0 0 0 0 0 0 0 0 0 0 0 0 0 0 0 0 0 0 0 0 0 0 0 0 0 0 0 0 0 0 0 0 1 1 2 2 2 1 0 0 2 3 2 1 0
0 0 0 0 0 0 0 0 0 0 0 0 0 0 0 0 0 0 0 0 0 0 0 0 0 0 0 0 0 0 0 0 0 0 0 0 1 2 3 4 5 3 1 1 1 2 2 2 1
0 0 0 0 0 0 0 0 0 0 0 0 0 0 0 0 0 0 0 0 0 0 0 0 0 0 0 0 0 0 0 0 0 0 0 0 1 1 2 4 5 5 4 2 1 0 1 3 3
0 0 0 0 0 0 0 0 0 0 0 0 0 0 0 0 0 0 0 0 0 0 0 0 0 0 0 0 0 0 0 0 0 0 0 0 0 0 0 1 3 5 5 3 2 1 2 3 5
0 0 0 0 0 0 0 0 0 0 0 0 0 0 0 0 0 0 0 0 0 0 0 0 0 0 0 0 0 0 0 0 0 0 0 0 0 0 0 0 1 4 5 5 4 3 3 3 3
0 0 0 0 0 0 0 0 0 0 0 0 0 0 0 0 0 0 0 0 0 0 0 0 0 0 0 0 0 0 0 0 0 0 0 0 0 0 0 0 1 3 5 5 4 4 3 2 1
0 0 0 0 0 0 0 0 0 0 0 0 0 0 0 0 0 0 0 0 0 0 0 0 0 0 0 0 0 0 0 0 0 0 0 0 0 0 0 0 0 1 3 3 3 3 3 1 0
0 0 0 0 0 0 0 0 0 0 0 0 0 0 0 0 0 0 0 0 0 0 0 0 0 0 0 0 0 0 0 0 0 0 0 0 0 0 0 0 0 0 1 1 1 2 2 1 1
0 0 0 0 0 0 0 0 0 0 0 0 0 0 0 0 0 0 0 0 0 0 0 0 0 0 0 0 0 0 0 0 0 0 0 0 0 0 0 0 0 0 0 0 0 1 1 1 0
0 0 0 0 0 0 0 0 0 0 0 0 0 0 0 0 0 0 0 0 0 0 0 0 0 0 0 0 0 0 0 0 0 0 0 0 0 0 0 0 0 0 0 0 0 0 0 0 0
0 0 0 0 0 0 0 0 0 0 0 0 0 0 0 0 0 0 0 0 0 0 0 0 0 0 0 0 0 0 0 0 0 0 0 0 0 0 0 0 0 0 0 0 0 0 0 0 0
0 0 0 0 0 0 0 0 0 0 0 0 0 0 0 0 0 0 0 0 0 0 0 0 0 0 0 0 0 0 0 0 0 0 0 0 0 0 0 0 0 0 0 0 0 0 0 0 0
0 0 0 0 0 0 0 0 0 0 0 0 0 0 0 0 0 0 0 0 0 0 0 0 0 0 0 0 0 0 0 0 0 0 0 0 0 0 0 0 0 0 0 0 0 0 0 0 0
0 0 0 0 0 0 0 0 0 0 0 0 0 0 0 0 0 0 0 0 0 0 0 0 0 0 0 0 0 0 0 0 0 0 0 0 0 0 0 0 0 0 0 0 0 0 0 0 0
0 0 0 0 0 0 0 0 0 0 0 0 0 0 0 0 0 0 0 0 0 0 0 0 0 0 0 0 0 0 0 0 0 0 0 0 0 0 0 0 0 0 0 0 0 0 0 0 0
Wind_Speed
8 6 4 3 4 2 7 6 5 5 5 6 5 4 5 8 7 6 4 3 2 6 7 9 7 7 8 7 7 7 6 6 6 6 6 6 5 5 4 4 3 3 2 2 1 1 2 2 2
6 5 4 4 2 4 7 6 8 8 6 3 4 5 7 8 8 5 4 3 2 5 5 5 6 6 6 7 7 7 7 6 6 6 6 6 6 6 5 4 4 3 3 2 2 1 1 1 2
5 4 3 2 2 5 5 6 6 6 7 4 4 6 7 7 7 5 5 2 3 4 3 4 3 4 4 5 6 6 6 6 7 7 7 7 7 7 6 6 5 5 4 3 2 1 1 1 1
3 4 3 1 7 6 5 5 4 3 5 7 4 7 7 8 7 5 5 3 4 4 3 5 2 0 2 4 5 6 7 7 8 8 8 8 8 7 7 7 6 6 5 4 3 2 1 1 1
3 3 2 4 6 6 5 5 5 5 5 7 5 7 8 8 8 7 6 5 5 5 4 5 7 5 3 3 4 5 6 7 8 9 9 9 9 9 8 8 7 6 6 5 4 3 2 2 1
3 3 1 3 6 5 5 4 4 6 6 6 5 6 7 8 10 8 7 7 7 7 6 6 8 8 7 7 6 6 7 8 9 10 10 10 10 9 9 9 8 7 7 6 5 4 4 3 2
3 1 1 3 5 4 4 3 5 4 6 7 5 5 6 9 9 7 7 7 7 7 7 7 7 6 5 6 7 8 7 8 9 10 10 10 10 10 10 9 9 8 8 7 6 5 5 4 3
3 2 2 2 3 4 4 4 5 6 6 6 6 5 6 7 6 6 7 7 8 7 7 7 7 7 7 6 6 8 8 9 9 10 10 10 11 11 11 11 11 10 9 9 8 7 6 5 5
4 3 1 1 1 4 5 4 5 5 8 8 8 9 7 5 5 6 7 7 8 7 6 6 7 6 6 6 6 7 7 7 8 8 9 9 9 10 9 11 8 10 10 10 9 9 8 7 7
3 1 3 3 2 5 5 5 5 5 8 8 9 9 7 5 6 7 8 8 8 8 7 7 7 7 7 6 5 4 5 4 5 4 6 6 7 7 8 4 8 11 11 11 11 9 9 10 8
1 2 4 4 4 5 6 6 3 4 5 5 6 7 6 6 7 7 8 8 8 7 7 7 7 7 7 5 5 3 3 4 4 5 5 5 5 5 6 4 6 9 11 10 9 11 9 9 6
4 5 4 5 5 4 5 6 5 4 6 6 6 6 5 6 7 7 8 8 8 9 9 9 9 8 7 6 5 5 4 4 4 5 6 5 4 5 5 4 5 5 5 6 7 6 8 9 9
5 6 5 6 6 6 7 6 6 8 7 7 6 5 5 5 6 6 7 8 8 9 9 10 10 9 8 7 6 6 5 5 6 4 6 7 5 6 6 5 4 6 6 6 7 8 8 8 8
6 9 8 7 6 5 7 7 5 7 7 6 5 4 4 5 6 7 8 9 10 10 10 10 10 9 9 8 7 6 6 5 6 5 7 7 6 6 6 6 5 5 6 6 6 8 6 6 6
9 8 7 5 5 5 6 5 4 7 7 5 4 3 3 4 5 7 9 9 10 10 11 10 10 10 10 9 9 7 6 7 6 6 7 7 7 7 7 6 6 5 6 7 6 7 5 6 6
6 6 5 6 5 5 7 3 7 7 7 5 2 1 1 3 5 7 8 9 10 10 10 10 9 10 10 9 8 7 6 6 6 6 6 7 7 8 6 6 6 6 5 5 5 5 5 6 6
7 6 4 6 6 5 7 3 7 7 6 5 3 1 1 3 5 7 8 9 9 10 10 10 10 10 9 9 7 7 6 6 5 5 5 6 7 7 7 6 6 6 5 5 6 5 5 6 6
4 6 4 2 5 6 7 4 5 7 7 5 3 2 2 5 6 7 8 8 8 9 10 10 9 9 9 7 7 6 6 5 5 4 4 6 6 7 7 6 6 6 5 5 5 6 6 5 5
3 4 4 2 1 5 7 6 5 6 7 6 5 3 3 4 5 6 7 8 8 9 10 10 10 10 8 7 7 6 6 6 5 5 5 6 6 6 7 6 6 5 6 6 7 6 7 5 4
2 3 1 3 1 4 5 7 5 6 7 6 5 4 4 5 6 6 7 8 9 9 10 10 10 10 9 7 6 5 6 6 5 5 5 6 6 6 6 6 6 5 6 7 7 7 5 5 5
1 2 1 1 3 4 5 6 7 6 7 6 6 5 5 5 7 7 8 8 8 9 10 9 10 9 9 9 6 6 5 5 4 5 5 5 6 5 5 6 6 6 6 6 6 7 8 6 6
2 2 1 3 5 1 3 5 3 4 6 7 7 6 4 4 5 6 7 8 8 9 9 10 10 10 9 9 7 8 6 6 6 6 5 6 5 5 5 5 5 6 5 6 7 7 6 7 6
4 3 2 3 5 5 4 6 2 3 4 3 4 4 4 3 4 5 6 7 7 8 8 8 9 9 9 9 8 8 7 6 6 6 6 6 5 5 5 5 5 5 5 6 7 7 7 7 7
6 5 4 4 6 5 0 5 2 1 2 1 1 2 3 3 3 4 5 5 6 6 7 7 8 8 9 9 9 8 9 8 8 7 7 6 4 4 6 5 5 5 5 6 6 7 8 7 8
5 5 4 5 4 0 2 5 3 3 1 3 2 2 2 2 4 4 5 6 6 7 7 7 8 8 8 9 8 9 9 8 7 7 6 6 5 5 6 6 5 5 5 5 6 6 7 8 9
1 5 5 4 3 1 3 4 2 2 1 3 3 3 3 3 3 4 5 5 6 6 6 7 7 7 8 8 9 8 9 6 6 7 6 6 5 6 7 6 6 5 5 5 5 5 6 6 8
3 1 4 5 3 4 2 2 1 3 4 5 5 5 4 3 3 4 4 5 5 5 6 6 7 7 7 8 8 8 9 8 8 8 7 6 6 6 7 7 6 6 5 5 4 4 5 5 6
4 2 3 4 4 3 1 2 1 1 1 2 4 5 4 4 4 3 4 4 4 5 5 5 6 7 6 7 7 7 8 8 8 7 8 8 8 8 8 7 7 6 5 5 4 3 4 4 5
4 3 2 3 4 5 2 2 3 2 2 3 3 3 4 4 4 4 4 4 4 4 4 4 5 5 6 6 7 7 7 7 7 7 8 8 8 8 8 8 7 6 6 5 4 4 4 4 4
2 2 4 4 2 3 4 1 4 2 4 5 5 4 4 4 4 4 4 4 4 4 4 4 4 5 5 6 6 7 7 7 8 8 8 8 8 8 8 8 8 7 6 6 5 5 4 4 4
Wind_Direction
175 177 191 226 233 144 71 51 39 51 55 50 47 48 54 40 15 43 50 81 122 148 148 156 171 173 173 174 178 181 183 184 184 185 184 185 189 192 195 197 197 191 180 165 139 118 98 86 81
163 173 213 237 253 99 75 48 49 44 42 48 54 48 64 59 41 50 54 59 132 142 151 151 152 181 185 187 192 196 198 199 200 200 199 202 205 208 210 212 215 214 211 202 187 162 126 96 78
167 220 253 250 53 59 75 52 45 48 42 38 71 51 45 33 21 25 30 81 121 120 123 105 146 188 197 203 207 210 212 212 213 215 216 217 217 218 218 220 224 225 223 217 209 201 169 127 89
200 224 236 126 84 64 55 40 23 46 56 37 70 79 74 32 6 20 41 64 95 94 85 88 65 141 220 232 233 230 230 229 228 228 227 225 224 225 227 227 228 227 225 224 220 220 210 174 111
233 249 198 108 90 89 68 39 33 47 56 41 58 88 75 31 28 40 45 51 56 60 51 57 44 23 0 311 282 264 252 247 243 238 234 231 230 230 230 232 231 228 228 229 228 227 219 199 164
243 251 217 104 106 106 83 48 51 55 67 52 51 85 72 36 29 33 43 48 47 39 32 30 45 30 18 359 335 305 284 271 262 255 247 241 238 236 235 236 234 230 230 234 234 228 225 218 213
281 284 60 111 125 119 92 57 42 48 60 40 11 79 90 44 33 36 49 54 49 38 26 12 3 5 10 4 351 337 315 292 276 266 257 250 246 242 241 240 235 232 231 232 232 228 229 227 228
290 252 130 131 146 114 104 90 57 34 58 41 21 57 63 39 47 57 58 54 49 38 23 7 358 350 343 338 341 335 328 312 295 280 266 256 249 242 240 241 230 234 236 232 228 228 231 232 233
259 250 107 108 147 113 127 119 85 72 83 73 65 66 68 67 69 66 62 52 42 33 20 7 357 352 345 333 339 328 316 312 303 290 274 263 255 246 230 234 226 233 239 237 231 226 228 233 220
258 304 59 51 55 116 123 108 114 122 98 94 92 85 83 75 60 51 44 37 30 19 10 4 354 346 341 334 328 312 304 299 293 294 291 274 264 262 261 239 230 240 242 239 234 229 226 232 221
25 55 97 97 92 120 126 114 115 140 97 91 99 96 86 70 55 43 35 25 15 1 357 352 340 334 329 317 309 308 297 287 279 282 281 277 274 266 257 248 228 230 232 234 217 218 225 226 229
107 82 99 115 114 127 128 125 111 74 92 98 97 98 86 63 47 33 21 9 0 355 350 343 335 325 321 315 310 298 292 289 279 274 275 270 262 259 257 249 248 245 238 237 236 232 228 233 230
125 119 105 108 115 118 121 119 111 107 112 115 113 104 74 51 36 28 12 360 354 349 343 342 333 330 328 322 304 297 293 290 285 276 271 264 261 258 251 252 250 248 244 236 235 236 231 234 240
115 122 123 126 127 132 132 124 131 130 139 133 126 100 66 43 20 8 5 356 351 346 342 340 335 332 325 318 309 304 299 290 283 278 274 273 265 262 257 253 250 249 251 251 244 240 237 237 239
134 133 137 148 149 147 165 157 148 143 160 153 142 102 56 29 10 5 0 351 350 345 343 345 334 333 329 323 317 306 297 293 287 283 280 275 272 269 264 259 252 247 245 245 245 244 238 233 232
166 184 188 163 176 172 233 232 138 161 179 175 168 118 30 16 358 5 356 350 349 345 344 343 338 335 333 327 318 310 306 303 294 288 283 280 276 273 272 263 258 252 247 240 236 233 227 226 225
202 242 247 165 188 195 237 259 147 177 197 201 204 229 322 351 358 3 356 352 348 345 344 344 344 338 335 329 317 314 310 306 299 294 291 287 281 275 269 265 264 259 249 241 239 229 222 226 220
250 267 269 209 171 218 237 240 166 188 212 223 231 261 311 340 358 359 356 353 348 348 346 347 344 343 339 334 326 325 321 316 310 302 299 298 289 281 276 264 257 253 247 242 238 238 226 226 218
301 279 284 76 115 238 249 250 209 198 213 228 241 267 311 340 349 2 355 353 350 353 350 350 348 349 347 343 335 333 330 323 321 314 317 304 295 287 277 271 262 250 245 242 240 236 230 220 208
225 255 240 134 134 260 265 260 228 214 225 242 264 281 308 329 337 356 351 354 352 353 352 350 351 349 347 345 332 321 319 315 320 317 318 317 310 297 282 274 268 255 251 245 239 231 230 216 198
177 290 282 209 169 209 273 246 207 205 222 234 248 269 297 321 331 344 347 349 349 354 352 349 350 347 349 345 335 328 327 317 328 329 327 324 320 307 293 286 280 270 257 250 244 235 231 225 209
155 73 182 204 245 230 277 297 153 196 227 235 242 253 279 307 322 333 339 344 347 351 348 347 351 351 351 346 344 343 338 334 330 327 325 325 327 326 312 294 282 274 266 258 249 238 236 231 220
84 108 174 235 263 266 224 277 125 169 250 243 239 251 272 296 318 329 340 342 345 348 346 346 351 355 356 350 348 340 343 335 330 329 331 330 336 334 328 314 297 287 275 266 259 252 240 233 226
137 160 162 210 242 251 139 279 306 117 338 357 214 248 266 283 306 320 337 339 344 347 346 346 352 358 358 352 349 349 347 342 340 341 338 336 335 334 335 324 310 299 289 278 268 255 244 238 233
212 245 233 213 216 167 91 268 299 37 307 282 289 300 291 280 299 318 333 339 342 343 345 344 351 355 357 354 354 354 350 344 345 344 341 338 337 338 337 329 319 311 300 286 274 260 248 240 235
202 283 302 308 323 63 188 258 22 72 255 250 254 262 268 270 291 309 323 329 332 336 339 341 346 350 354 352 354 356 354 348 349 348 342 340 338 336 334 329 323 316 308 295 282 268 256 245 236
191 215 342 296 284 271 209 253 227 168 225 230 239 245 253 269 280 298 314 321 327 331 336 339 340 346 353 351 351 355 356 355 353 351 350 347 343 338 340 336 334 327 317 309 300 281 269 261 246
357 123 220 263 288 281 237 246 345 178 253 233 241 245 249 255 269 288 304 309 317 327 330 334 340 344 351 351 353 355 353 355 353 351 354 350 348 350 346 345 341 337 332 324 317 303 289 268 257
169 189 232 260 293 301 323 86 64 327 311 285 268 252 247 252 265 285 300 302 306 311 320 330 339 348 353 352 353 352 355 353 353 356 354 350 349 352 351 349 347 347 345 339 331 317 307 290 270
267 252 240 272 232 271 292 36 111 257 277 273 270 252 238 244 257 270 285 289 292 303 318 330 340 351 355 351 352 355 353 355 358 359 354 352 354 354 354 353 355 355 351 347 345 338 331 319 299